OpenBCM V2.0.3 (Linux)

Packet Radio Mailbox

IZ3LSV

[San Dona' di P. JN]

 Login: GUEST





  
I0OJJ  > AMSAT    22.08.26 11:00l 331 Lines 15656 Bytes #999 (0) @ WW
BID : NX87_IR0EQ
Read: GUEST
Subj: 2Line Orbital Elements
Path: IZ3LSV<ED1ZAC<LU1DBQ<IR0EQ
Sent: 260818/0025z @:IR0EQ.ITA.EU [Rome] $:NX87_IR0EQ

>From i0ojj@rgate.ampr.org Tue Aug 18 02:25:48 2026
Received: from rgate.ampr.org by rgate.ampr.org (JNOS2.0q.1) with SMTP
	id AA1116151 ; Tue, 18 Aug 2026 02:25:48 +0200
Received: by rgate.ampr.org with SMTP
	id AA1116148 ; Tue, 18 Aug 2026 02:25:30 +0200
Message-Id: <1116149@rgate.ampr.org>
>From: i0ojj@rgate.ampr.org

SB KEPS @ AMSAT  $ORB26230.1
2Line Orbital Elements 26230.AMSAT

QST de W1STR

AMSAT Orbital Elements for Amateur Satellites in TLE Format
>From Orbital Analysis Office
New England Sci-Tech STEM Education Center
Natick MA August 18, 2026
To all radio amateurs


These element sets describe the orbits of various satellites 
in use by the amateur radio community. For details see:
www.amsat.org/keplerian-elements-formats/

A daily update of element sets is available at:
www.amsat.org/tle/daily-bulletin.txt
or without bulletin text:
www.amsat.org/tle/dailytle.txt


AO-07
1 07530U 74089B   26229.53076848 -.00000056  00000-0 -59271-4 0  9996
2 07530 101.9919 243.4186 0012343  16.0973 150.6181 12.53699110368202
UO-11
1 14781U 84021B   26229.36489246  .00000852  00000-0  92026-4 0  9997
2 14781  97.8118 194.2807 0007315 354.5113   5.6024 14.90923238266244
LO-19
1 20442U 90005G   26229.29897656  .00000034  00000-0  28868-4 0  9992
2 20442  98.8842 252.7845 0012075  31.9723 328.2191 14.34137945911150
AO-27
1 22825U 93061C   26229.18290361  .00000040  00000-0  32367-4 0  9998
2 22825  98.6835 296.5605 0007228 283.0988  76.9387 14.30955621715728
FO-29
1 24278U 96046B   26229.52705580 -.00000048  00000-0 -94422-5 0  9991
2 24278  98.5195  69.9908 0348893 297.3531  59.2502 13.53276844481467
GO-32
1 25397U 98043D   26229.45653479  .00000013  00000-0  25814-4 0  9992
2 25397  99.0120 223.7744 0002183  62.7742 297.3658 14.24438425460052
ISS
1 25544U 98067A   26229.53453565  .00005086  00000-0  98784-4 0  9996
2 25544  51.6334 356.4696 0007521  56.7242 303.4466 15.49472682581260
NO-44
1 26931U 01043C   26228.99422620  .00000034  00000-0  43549-4 0  9999
2 26931  67.0498  86.9959 0005651 269.5140  90.5314 14.31975258299150
SO-50
1 27607U 02058C   26228.57232049  .00000534  00000-0  80742-4 0  9996
2 27607  64.5526 302.1389 0073420 251.3947 107.9176 14.83159467273411
CO-55
1 27844U 03031E   26229.01168176  .00000157  00000-0  86840-4 0  9996
2 27844  98.6760 236.8117 0009882  16.3934 343.7563 14.24367469200339
RS-22
1 27939U 03042A   26229.67278661  .00000253  00000-0  47131-4 0  9993
2 27939  98.3484  55.7800 0012549  74.9076  19.4854 14.73559924224601
CO-65
1 32785U 08021C   26229.49065190  .00003270  00000-0  20563-3 0  9992
2 32785  97.8338 212.2263 0008882 168.2335 191.9103 15.09941978994444
CO-66
1 32791U 08021J   26229.46288232  .00012854  00000-0  38518-3 0  9997
2 32791  97.7552 230.3887 0004949  94.2422 265.9386 15.34636577996683
RS-30
1 32953U 08025A   26229.58374083  .00000026  00000-0  11423-3 0  9998
2 32953  82.5075 317.2559 0019898 174.5100 185.6201 12.43181988827326
SRMSAT
1 37841U 11058D   26229.57613569  .00000344  00000-0  42633-4 0  9994
2 37841  19.9728  47.8878 0011708 159.1951 246.8204 14.11586725766501
ZACUBE-1
1 39417U 13066B   26229.59030478  .00003764  00000-0  29008-3 0  9999
2 39417  97.8019 192.2180 0042522  47.2749 313.2042 15.01537533689945
Delfi-N3xt
1 39428U 13066N   26229.26959825  .00005918  00000-0  50792-3 0  9998
2 39428  97.8302 149.5385 0073903   5.1451 355.0512 14.95747329683751
GOMX-1
1 39430U 13066Q   26229.60234221  .00000917  00000-0  14438-3 0  9996
2 39430  97.6447  66.1927 0126825 239.9138 118.9445 14.69607521678934
LO-74
1 39440U 13066AA  26229.61499606  .00002006  00000-0  18745-3 0  9994
2 39440  97.8943 178.8833 0056893 181.9547 178.1460 14.94122128686164
AO-73
1 39444U 13066AE  26229.35888260  .00005314  00000-0  32438-3 0  9997
2 39444  97.8335 202.1328 0035691 358.7255   1.3876 15.10228262688891
DTUSAT-2
1 40030U 14033W   26229.44894761  .00004390  00000-0  23425-3 0  9997
2 40030  98.0903 231.1096 0008805  37.5452 322.6392 15.15703422661962
LILACSAT-2
1 40908U 15049K   26229.57083837  .00013068  00000-0  20820-3 0  9995
2 40908  97.4598 268.8135 0007416  43.6025 316.5812 15.53361077605270
Lapan A3
1 41603U 16040E   26229.60250542  .00002108  00000-0  67445-4 0  9991
2 41603  97.1538 223.7595 0011080 146.0352 214.1603 15.33443518564226
CAS-2T
1 41847U 16066G   26229.11522250  .00000288  00000-0  50601-4 0  9996
2 41847  98.3785 304.1544 0340284 304.8118  52.1491 14.44806577513594
TechnoSat
1 42829U 17042E   26228.94714004  .00001337  00000-0  97512-4 0  9990
2 42829  97.4357  24.3322 0015930 243.9779 115.9808 15.05252335495840
AO-91
1 43017U 17073E   26229.18155686  .00006609  00000-0  28252-3 0  9997
2 43017  97.4607  95.1526 0149887 117.5788 244.0759 15.13477570474615
S-Net D
1 43186U 18014G   26229.21503167  .00003255  00000-0  16730-3 0  9997
2 43186  97.5283 133.6240 0008668 154.6782 205.4878 15.17155638468013
S-Net B
1 43187U 18014H   26229.22771146  .00003059  00000-0  15755-3 0  9991
2 43187  97.5291 133.6249 0009387 151.2461 208.9292 15.17123805468017
S-Net A
1 43188U 18014J   26229.54334960  .00003248  00000-0  16688-3 0  9992
2 43188  97.5299 134.1591 0009304 150.8785 209.2968 15.17165878468060
S-Net C
1 43189U 18014K   26229.16599272  .00003071  00000-0  15818-3 0  9998
2 43189  97.5319 133.8682 0010797 146.6226 213.5690 15.17113508466557
Ten-Koh
1 43677U 18084G   26229.10409591  .00001454  00000-0  11257-3 0  9991
2 43677  98.0739  64.0397 0008558 276.1252  83.8997 15.03140741425310
PO-101
1 43678U 18084H   26229.58454736  .00000888  00000-0  75391-4 0  9995
2 43678  98.1204  68.4928 0010544 331.2497  28.8143 15.00652543425428
QO-100
1 43700U 18090A   26229.21040969  .00000137  00000-0  00000-0 0  9995
2 43700   0.0175 100.2248 0002598  78.8655 248.0296  1.00274655 28280
MinXSS-2
1 43758U 18099A   26229.20329126  .00031752  00000-0  54617-3 0  9994
2 43758  97.4480 307.4513 0006702  53.6934 306.4936 15.51029652423577
AO-95
1 43770U 18099N   26229.59743924  .00008040  00000-0  29779-3 0  9991
2 43770  97.4330 289.6524 0010038 125.7681 234.4493 15.27869309422598
SNUSat 2
1 43782U 18099AA  26229.59669467  .00005349  00000-0  23235-3 0  9993
2 43782  97.4008 282.0562 0011845  83.3590 276.8995 15.22664505422376
SnugLite
1 43784U 18099AC  26229.57854134  .00007790  00000-0  28472-3 0  9990
2 43784  97.3815 283.2901 0004551  83.7472 276.4286 15.28351608422699
ITASat 1
1 43786U 18099AE  26229.59817651  .00004385  00000-0  20797-3 0  9996
2 43786  97.3978 279.8968 0013793 133.2923 226.9465 15.19718589422239
EAGLET 1
1 43790U 18099AJ  26229.09027152  .00002436  00000-0  14011-3 0  9992
2 43790  97.4187 277.1460 0012385 130.0333 230.1988 15.13331769421546
ESEO
1 43792U 18099AL  26229.04318739  .00001446  00000-0  10751-3 0  9990
2 43792  97.3942 263.8193 0013309 122.4788 237.7728 15.04402488420953
JO-97
1 43803U 18099AX  26229.12882549  .00012132  00000-0  35432-3 0  9994
2 43803  97.4072 292.2384 0006700  65.7332 294.4610 15.35438780422972
Suomi 100
1 43804U 18099AY  26229.13152103  .00008405  00000-0  29421-3 0  9991
2 43804  97.4133 289.3382 0011132  70.4565 289.7877 15.29698704422735
ISAT
1 43879U 18111D   26228.77175681  .00143734  00000-0  78579-3 0  9996
2 43879  97.5827 169.2556 0008739 101.6612 258.5636 15.79404839420684
UWE-4
1 43880U 18111E   26229.62555335  .00029617  00000-0  53319-3 0  9999
2 43880  97.5821 161.0153 0010096  98.3427 261.8968 15.49720161420285
Sparrow
1 43881U 18111F   26228.43502384  .06041846  26546-5  91668-3 0  9995
2 43881  97.5898 176.4549 0010987 196.6625 163.4311 16.34108377420946
Prox-1
1 44339U 19036A   26229.61577845  .00009416  00000-0  88089-3 0  9992
2 44339  23.9953  63.4733 0006210  27.7741 332.3090 14.91875191382659
Taurus 1
1 44530U 19059C   26229.60800286  .00001157  00000-0  19042-3 0  9994
2 44530  98.6477  38.2942 0009668 117.6143 242.6045 14.72640571367689
TO-108
1 44881U 19093C   26229.56663723  .00000998  00000-0  11841-3 0  9990
2 44881  97.7490 300.2919 0012046 242.6159 117.3831 14.86601297360534
RS-44
1 44909U 19096E   26229.21984210  .00000012  00000-0  60522-5 0  9992
2 44909  82.5225 299.1568 0217424   1.9882 358.2033 12.79748834310157
SALSAT
1 46495U 20068K   26228.96072412  .00005116  00000-0  17579-3 0  9990
2 46495  97.8878 235.7696 0011443  89.9395 270.3156 15.30552993324657
CSS (TIANHE-1)
1 48274U 21035A   26229.59855530  .00001264  00000-0  19905-4 0  9998
2 48274  41.4707 309.2165 0001156 262.4072  97.6635 15.59040506302750
TeikyoSat 4
1 49396U 21102B   26229.43383336  .00001230  00000-0  79992-4 0  9997
2 49396  97.3653 256.5357 0013729  83.7141 276.5652 15.09691498261964
Z-Sat
1 49399U 21102E   26229.61443668  .00003016  00000-0  14814-3 0  9990
2 49399  97.3293 263.0782 0017583  37.9639 322.2832 15.18676248262761
KOSEN 1
1 49402U 21102H   26228.55101040  .00004483  00000-0  16851-3 0  9994
2 49402  97.3145 269.5538 0013126   2.3397 357.7902 15.27594038263238
HO-113
1 50466U 21131B   26229.62831495  .00000527  00000-0  17637-3 0  9999
2 50466  98.4981 321.6863 0002852 276.6363  83.4501 14.41405953243962
SNUGLITE 2
1 52899U 22065F   26228.91140636  .00000553  00000-0  11365-3 0  9990
2 52899  98.2285  13.6652 0007373 183.3414 176.7740 14.64441395219887
UmKA 1 (RS40S)
1 57172U 23091G   26229.60019553  .00003613  00000-0  16396-3 0  9998
2 57172  97.4997 288.0711 0010777 263.5472  96.4536 15.21410106173349
CubeBel-2 (EU11S)
1 57175U 23091K   26229.60117369  .00008947  00000-0  30595-3 0  9997
2 57175  97.4996 293.4117 0007834 251.9810 108.0577 15.30477720173696
RS-38S
1 57189U 23091Z   26229.60804609  .00012375  00000-0  33556-3 0  9992
2 57189  97.5040 300.3903 0006660 196.0933 164.0101 15.37758052174125
